This demonstration page uses our WeatherBlox Daily Observations layout. Learn more.

36.17497, -115.13722

Hourly Observations for June 18, 2016

Temp ( °F °C ) Dew Point ( °F °C ) Humidity (%) Winds ( mph kmh ) Pressure ( in mb ) Visibility ( mi km ) Precip ( " mm )
12:53 am 00:53 Clear 84 28.9 33 0.6 16 16 SW 7 11 29.93 1014 10 16.0934 0 0
1:53 am 01:53 Clear 81 27.2 34 1.1 18 18 E 5 7 29.94 1014 10 16.0934 0 0
2:53 am 02:53 Clear 80 26.7 34 1.1 19 19 E 6 9 29.94 1014 10 16.0934 0 0
3:53 am 03:53 Clear 78 25.6 35 1.7 21 21 SSW 6 9 29.95 1014 10 16.0934 0 0
4:53 am 04:53 Clear 76 24.4 36 2.2 23 23 Calm 29.96 1015 10 16.0934 0 0
5:53 am 05:53 Sunny 75 23.9 33 0.6 22 22 E 5 7 29.98 1015 10 16.0934 0 0
6:53 am 06:53 Sunny 76 24.4 38 3.3 25 25 Calm 30 1016 10 16.0934 0 0
7:53 am 07:53 Sunny 81 27.2 36 2.2 20 20 NNE 5 7 30.01 1016 10 16.0934 0 0
8:53 am 08:53 Sunny 86 30 35 1.7 16 16 VRB 7 11 30.01 1016 10 16.0934 0 0
9:53 am 09:53 Sunny 89 31.7 27 -2.8 11 11 S 9 15 30.01 1016 10 16.0934 0 0
10:53 am 10:53 Sunny 93 33.9 23 -5 8 8 S 14 22 30.01 1016 10 16.0934 0 0
11:53 am 11:53 Sunny 95 35 24 -4.4 8 8 S 13 20 30 1016 10 16.0934 0 0
12:53 pm 12:53 Sunny 96 35.6 21 -6.1 6 6 S 6 9 29.99 1016 10 16.0934 0 0
1:53 pm 13:53 Sunny 99 37.2 19 -7.2 5 5 S 10 17 29.96 1015 10 16.0934 0 0
2:53 pm 14:53 Sunny 101 38.3 18 -7.8 5 5 W 17 28 29.95 1014 10 16.0934 0 0
3:53 pm 15:53 Sunny 101 38.3 11 -11.7 4 4 SW 15 24 29.93 1014 10 16.0934 0 0
4:53 pm 16:53 Sunny 98 36.7 12 -11.1 4 4 WSW 12 19 29.93 1014 10 16.0934 0 0
5:53 pm 17:53 Sunny 99 37.2 6 -14.4 3 3 SW 16 26 29.92 1013 10 16.0934 0 0
6:53 pm 18:53 Sunny 97 36.1 10 -12.2 4 4 SSW 13 20 29.93 1014 10 16.0934 0 0
7:53 pm 19:53 Sunny 96 35.6 15 -9.4 5 5 SW 16 26 29.93 1014 10 16.0934 0 0
8:53 pm 20:53 Clear 95 35 16 -8.9 5 5 SW 17 28 29.93 1014 10 16.0934 0 0
9:53 pm 21:53 Clear 93 33.9 17 -8.3 6 6 WSW 13 20 29.96 1015 10 16.0934 0 0
10:53 pm 22:53 Clear 92 33.3 18 -7.8 6 6 W 13 20 29.96 1015 10 16.0934 0 0
11:53 pm 23:53 Clear 92 33.3 19 -7.2 7 7 W 10 17 29.95 1014 10 16.0934 0 0

Powered by AerisWeather